Tracking 20083 objects as of 9-Dec-2019
HD Live streaming from Space Station
objects crossing your sky now

COSMOS 1275 DEB

Track COSMOS 1275 DEB now!
10-day predictions


NORAD ID: 12728
Int'l Code: 1981-053BV
Perigee: 946.8 km
Apogee: 1,027.5 km
Inclination: 82.8 °
Period: 104.7 minutes
Semi major axis: 7358 km
RCS: 0.1199 m2 (medium)
Launch date: June 4, 1981
Source: Commonwealth of Independent States (former USSR) (CIS)
Launch site: PLESETSK MISSILE AND SPACE COMPLEX (PKMTR)

Note: This is SATELLITE DEBRIS
aabbcc
Your satellite tracking list
Your tracking list is empty




NASA's NSSDC Master Catalog

Two Line Element Set (TLE):
1 12728U 81053BV  19342.78126090 +.00000152 +00000-0 +14109-3 0  9995
2 12728 082.8094 083.0112 0054901 009.0799 146.6207 13.75465981910534
Source of the keplerian elements: AFSPC